Theta_e
314 317 319 320 320 320 321 318 316 318 317 318 318 316 315 315 315 316 316 316 316 316 316 316 317 317 317 317 317 317 317 317 317 317 317 317 317 318
312 314 319 319 319 319 318 318 317 319 319 318 318 319 318 317 316 315 315 315 317 317 316 316 317 317 317 317 317 317 317 317 317 317 317 317 317 317
311 314 313 316 314 318 317 315 314 315 318 318 318 317 317 319 318 317 316 315 315 315 316 316 317 317 317 317 317 317 317 317 316 316 316 317 317 317
316 311 311 310 316 315 314 314 314 315 317 318 317 318 317 317 316 316 316 317 317 317 315 316 316 316 315 316 316 315 316 316 316 316 316 315 317 317
317 313 314 313 314 316 317 317 316 316 317 319 319 319 318 319 319 319 319 320 319 317 316 316 316 315 315 315 314 314 314 314 315 316 316 316 316 316
316 315 318 317 316 319 318 318 321 321 321 320 320 320 320 320 320 320 320 320 319 319 318 318 318 317 317 317 316 316 316 315 314 314 315 315 315 316
321 321 320 320 320 319 320 321 321 321 321 321 321 320 320 320 320 320 320 320 319 319 319 319 319 319 319 319 319 318 318 318 318 317 317 317 316 316
319 320 320 320 320 320 320 320 320 320 320 321 321 321 320 320 320 320 320 319 318 319 318 318 319 319 319 318 318 318 317 317 317 317 316 316 316 316
320 321 321 321 321 321 321 322 321 321 320 319 319 320 320 320 319 319 319 319 318 318 318 318 318 317 317 317 318 317 317 316 316 316 316 316 316 315
320 319 319 320 319 320 319 320 321 321 319 318 318 317 317 318 317 317 317 317 316 316 316 316 315 314 315 314 312 313 314 314 314 312 310 309 307 304
320 320 320 319 319 319 319 318 318 317 317 317 317 316 316 316 316 315 314 313 313 313 311 310 311 310 305 302 303 301 299 298 298 298 297 296 294 294
317 316 316 316 316 317 317 316 316 315 313 312 313 313 312 311 310 309 308 308 306 304 304 302 302 301 299 296 294 293 291 291 291 291 291 291 291 291
309 309 308 308 310 310 311 310 310 310 309 307 305 303 301 300 300 300 299 300 300 299 298 297 295 293 291 289 288 288 288 289 289 289 289 289 289 289
301 301 300 300 300 301 302 300 299 299 299 298 297 296 295 294 293 293 293 293 293 293 291 291 291 290 290 288 287 287 287 287 287 288 288 288 288 287
296 295 294 294 294 294 293 294 295 294 293 293 292 291 290 289 289 289 289 289 289 289 289 289 289 288 287 285 284 284 283 286 286 286 286 285 283 281
291 291 291 291 291 291 291 291 290 290 290 289 287 287 287 287 287 287 287 287 287 287 287 287 287 287 286 286 283 283 282 280 278 277 278 278 278 278
289 290 290 289 289 289 288 288 288 287 287 286 285 284 284 284 285 284 283 282 281 279 278 278 279 279 280 279 278 277 277 277 277 277 278 278 278 278
290 289 288 287 287 286 285 286 286 286 285 284 283 282 281 280 279 279 278 278 278 277 277 277 277 278 278 277 276 276 276 276 276 277 277 277 278 278
288 286 284 283 282 281 281 281 281 281 280 279 278 278 277 277 277 278 277 277 277 276 276 275 276 277 279 279 276 276 276 275 276 277 277 277 278 278
282 280 279 278 277 277 277 277 276 276 276 276 276 276 276 276 276 276 276 276 276 275 275 275 274 275 275 275 275 276 275 275 275 277 277 277 277 279
278 277 276 275 275 275 275 275 275 275 275 275 274 274 274 274 274 274 274 274 274 274 274 274 273 275 274 274 276 276 275 275 276 277 278 278 278 279
275 275 274 275 274 274 274 274 274 274 273 273 273 273 273 273 273 273 273 273 273 273 273 273 273 273 273 274 274 275 276 275 276 276 277 277 277 278
274 274 274 274 273 273 273 273 273 273 273 272 272 272 272 271 271 272 272 272 272 272 272 273 273 273 274 273 274 275 276 276 276 277 278 278 279 280
Wind_Speed
44 35 35 33 34 31 23 22 23 23 25 22 23 28 26 26 28 27 33 40 33 39 34 31 31 33 34 33 36 39 38 40 43 44 45 44 43 44
43 36 31 33 35 35 34 28 28 27 28 26 26 20 24 29 34 35 34 36 40 37 39 36 39 40 44 42 43 40 41 46 45 46 46 45 47 47
37 36 39 32 34 32 34 35 40 37 37 39 37 37 35 34 33 37 37 41 42 41 42 44 45 47 45 48 46 47 49 45 42 45 49 51 51 52
35 40 42 43 38 40 41 44 46 42 44 49 50 49 43 46 45 45 48 45 45 43 45 44 46 50 48 47 49 48 50 55 56 53 54 52 54 57
37 37 39 41 45 45 44 44 46 48 51 50 46 40 46 43 40 42 45 42 44 47 48 51 52 54 53 52 55 59 57 56 57 59 60 62 61 59
33 37 40 43 46 43 42 42 37 36 35 38 41 40 37 42 39 41 40 42 47 43 45 49 49 51 51 51 53 55 56 56 56 56 56 58 58 58
34 36 37 39 41 40 38 39 36 38 40 40 41 44 43 40 41 41 43 44 45 44 48 48 44 46 47 49 49 49 48 46 46 48 51 52 52 53
30 31 32 34 36 38 40 42 43 44 44 45 45 44 48 47 45 43 44 43 47 47 50 52 46 45 44 47 49 52 53 51 49 46 46 48 49 49
32 33 34 35 37 40 40 40 40 41 44 48 51 48 47 47 45 46 46 46 48 44 40 43 37 41 48 51 55 55 55 55 56 56 55 54 54 55
33 34 34 35 35 37 39 40 40 40 41 42 45 54 58 57 56 55 51 50 51 47 43 39 38 35 41 44 46 51 53 54 54 53 50 47 42 38
29 32 35 38 41 41 41 40 39 38 43 43 44 47 49 50 50 49 49 49 52 48 43 35 38 35 31 28 31 31 25 21 21 22 21 18 14 15
19 21 25 29 32 36 37 37 36 36 37 37 37 38 39 40 42 39 38 35 31 29 30 25 25 24 19 19 15 13 11 8 7 8 8 8 9 10
10 10 10 13 17 19 21 21 21 23 23 22 21 20 20 17 17 13 11 10 13 15 16 15 15 16 12 7 8 8 8 8 8 9 9 10 11 12
1 4 7 9 10 8 5 6 6 6 6 7 6 5 4 8 9 11 9 8 5 3 3 4 6 8 8 8 6 8 9 9 10 11 12 13 14 15
12 12 12 11 11 11 13 10 9 9 8 7 8 8 9 9 9 10 10 10 9 7 5 4 4 4 4 3 3 4 4 8 10 12 13 15 16 17
16 15 15 16 16 15 14 15 14 13 12 12 11 10 8 7 7 7 7 5 6 5 4 3 3 3 3 3 2 3 5 6 10 11 12 12 12 14
14 13 14 14 15 16 16 15 14 14 13 12 10 9 8 8 8 7 7 7 7 8 9 8 5 3 2 2 2 3 6 7 9 12 13 13 13 15
10 12 14 14 14 13 13 12 11 10 9 8 8 8 8 8 8 8 9 8 8 8 8 8 8 7 6 7 4 6 7 9 11 12 13 15 16 14
10 12 12 12 11 10 9 9 10 8 7 7 7 6 6 6 7 7 8 8 8 8 8 8 7 6 5 5 7 8 10 11 12 12 13 14 18 18
10 11 11 11 10 9 9 9 8 8 8 8 7 7 7 7 7 7 7 6 6 6 6 7 8 6 6 7 7 7 11 12 13 15 16 17 17 18
9 9 9 9 9 9 9 8 8 8 7 7 7 7 6 6 6 6 7 6 6 5 6 7 7 7 7 8 8 10 10 14 13 14 15 16 14 11
8 8 8 7 7 7 7 7 7 6 6 6 6 5 5 5 5 5 5 5 5 5 5 7 8 8 7 8 10 12 11 14 13 16 12 12 14 10
7 6 6 6 5 5 5 5 5 5 5 5 5 5 4 4 4 4 4 5 5 5 7 7 8 8 8 9 12 12 14 14 14 10 9 15 15 15
Wind_Direction
219 223 229 227 228 236 239 242 243 245 246 247 244 250 248 252 260 264 257 263 265 246 248 253 260 267 270 271 271 272 271 273 271 269 269 269 272 274
225 226 233 235 240 239 247 243 243 250 257 251 249 248 262 261 263 269 268 267 268 261 254 253 258 264 267 267 273 271 269 274 275 266 269 267 271 272
226 228 234 234 239 239 245 250 253 261 266 256 258 258 256 263 264 268 266 267 267 267 262 268 271 266 263 268 270 269 270 271 276 277 275 270 270 272
229 233 235 237 244 248 253 255 255 263 265 261 267 267 259 262 270 266 265 266 271 271 272 268 271 272 277 264 269 273 269 270 270 271 273 274 271 272
231 233 233 236 244 248 249 254 255 259 262 264 264 260 261 262 264 264 265 262 263 272 273 272 271 271 273 272 271 275 274 272 271 269 270 270 271 271
239 240 244 245 247 254 256 254 253 251 251 251 258 263 260 265 264 264 263 261 263 265 269 278 282 282 279 276 272 273 272 270 269 269 270 269 269 270
247 250 253 254 255 256 255 256 256 257 258 255 254 259 261 262 259 262 262 262 262 262 265 265 267 273 277 285 286 280 275 271 269 268 265 265 264 266
254 257 259 259 259 258 259 262 264 263 261 261 260 258 263 263 264 261 262 263 264 266 265 266 266 267 263 261 260 270 278 281 279 273 269 269 271 272
250 255 257 258 262 268 271 268 267 265 262 261 261 260 260 259 259 264 264 264 267 271 262 264 259 249 252 252 255 260 265 270 274 277 276 273 271 270
257 260 265 268 267 270 273 274 274 279 281 278 272 270 264 267 267 267 267 266 267 265 266 264 263 259 255 255 256 258 257 258 262 268 272 270 267 263
257 259 259 261 265 268 270 273 273 271 273 276 277 278 278 277 277 277 273 271 269 271 273 274 268 272 268 267 269 277 285 279 271 267 265 265 259 254
254 261 264 265 267 269 271 272 272 271 270 269 270 271 272 273 275 278 279 279 277 275 268 261 261 253 241 252 250 245 245 238 236 231 233 245 247 249
248 268 290 293 288 291 293 294 288 280 271 267 265 266 274 288 298 309 315 303 282 265 268 255 247 235 232 231 230 243 243 249 252 268 268 268 272 274
49 11 1 1 351 346 347 22 17 331 304 294 282 296 355 24 26 28 30 36 40 11 321 265 256 242 243 233 230 248 251 260 266 271 278 282 283 284
69 63 57 50 50 56 62 67 76 79 77 71 70 63 58 56 52 52 52 56 56 61 68 79 110 135 165 159 197 228 266 273 284 293 299 305 305 301
82 83 80 77 77 81 89 85 82 81 80 78 74 71 67 61 55 55 44 38 41 48 59 76 99 132 149 169 200 284 298 317 317 314 309 313 311 305
84 87 85 81 79 78 77 79 80 80 75 74 69 55 41 31 30 30 35 35 46 38 28 24 28 42 48 41 10 345 334 331 326 325 328 328 315 305
82 78 75 73 71 67 64 63 66 62 57 50 44 38 31 30 28 28 33 40 41 37 32 27 22 1 1 354 9 354 345 337 330 331 328 318 321 317
75 76 74 68 62 58 54 49 46 49 47 48 49 47 42 37 40 38 31 36 35 31 27 21 28 30 2 348 328 347 350 341 331 329 320 315 311 313
68 67 60 52 48 46 46 46 46 45 47 49 49 51 49 40 40 40 38 39 28 20 15 16 10 23 8 334 325 321 339 339 334 332 324 318 316 331
53 49 52 51 50 44 41 41 44 45 44 41 38 41 40 48 44 36 24 33 37 20 358 2 351 5 355 342 323 318 326 329 338 334 325 330 334 339
53 51 47 47 46 44 40 38 30 33 32 33 26 29 30 39 27 26 25 16 6 6 344 344 345 351 345 340 325 328 329 326 342 334 339 349 347 336
51 49 43 41 36 31 27 24 24 17 19 13 16 8 19 10 12 11 13 4 352 346 346 344 343 344 338 334 334 331 330 343 342 347 333 334 0 11